Weather Roundup
Issued by NWS Chicago, IL

Home | Current Version | Previous Version | Text Only | Print | Product List | Glossary On
Versions: 1 2 3 4 5 6 7 8 9 10 11 12 13 14 15 16 17 18 19 20 21 22 23 24 25 26 27 28 29 30 31 32 33 34 35 36 37 38 39 40 41 42 43 44 45 46 47 48 49 50
000
NZUS59 KLOT 271710
HRRLOT

CHICAGO AREA WEATHER ROUNDUP
NATIONAL WEATHER SERVICE CHICAGO/ROMEOVILLE IL
1100 AM CST THU NOV 27 2014

NOTE: "FAIR" INDICATES FEW OR NO CLOUDS BELOW 12,000 FEET WITH NO
SIGNIFICANT WEATHER AND/OR OBSTRUCTIONS TO VISIBILITY.

* THESE STATIONS ARE NOT UNDER NWS QUALITY CONTROL. THEY ALSO MAY NOT
  REPORT WEATHER SUCH AS PRECIPITATION OR FOG.

ILZ005-006-012>014-019>023-271800-
NORTHEAST ILLINOIS

CITY           SKY/WX    TMP DP  RH WIND       PRES   REMARKS
OHARE          PTSUNNY   25  16  68 NW16      30.33R WCI  12
MIDWAY         PTSUNNY   29  18  63 NW14      30.33S WCI  18
AURORA         CLOUDY    26  17  68 NW13      30.36R WCI  15
LANSING*       CLOUDY    28  20  71 NW10G18   30.33S WCI  18
JOLIET*        CLOUDY    26  18  69 NW8G16    30.36S WCI  18
WAUKEGAN       CLOUDY    23  16  74 NW7G16    30.33R WCI  15
DUPAGE AIRPORT CLOUDY    25  18  74 NW13      30.34R WCI  14
WHEELING       CLOUDY    25  16  68 NW15      30.35R WCI  13
KANKAKEE*      CLOUDY   N/A N/A N/A W14       30.36S
MORRIS*        CLOUDY    28  22  80 NW15      30.36S WCI  16
LEWIS AIRPORT* CLOUDY    26  19  73 NW10      30.34F WCI  16
NORTHERLY IS     N/A     28  19  69 NW10        N/A  WCI  19
$$

WIZ051-052-058>065-066-070>072-271800-
SOUTHEAST WISCONSIN

CITY           SKY/WX    TMP DP  RH WIND       PRES   REMARKS
MILWAUKEE      FLURRIES  24  15  68 NW10      30.33R WCI  14
KENOSHA*       PTSUNNY   24  16  71 NW14      30.32F WCI  12
RACINE*        CLOUDY    23  16  74 NW9       30.34S WCI  13
BURLINGTON     CLOUDY    19  13  80 N13       30.34F WCI   5
WAUKESHA       CLOUDY    18  12  79 NW12      30.34S WCI   5
WEST BEND      FLURRIES  19  12  73 N10       30.32F WCI   8
$$

INZ001>003-010>013-019-020-271800-
NORTHWEST INDIANA

CITY           SKY/WX    TMP DP  RH WIND       PRES   REMARKS
GARY*          PTSUNNY   30  19  64 W12       30.34R WCI  21
MICHIGAN CITY* NOT AVBL
RENSSELAER*    NOT AVBL
VALPARAISO     CLOUDY    28  21  75 NW13      30.30S WCI  17
$$

LMZ740>746-271800-
SOUTHERN LAKE MICHIGAN

STATION/POSITION TIME  SKY/WX   TEMP WIND        PRES    VSBY
                                AIR  DIR/SP/G
                 (UTC)          (F)  (DEG/KT/KT) (MB)    (MI)
HARRISON CRIB    1700            26  300/ 16/ 19   N/A
BURNHAM HARBOR   1700            27  300/ 11/ 14   N/A
CALUMET HARBOR   1700            27  280/  8/ 17 1025.7R
BURNS HARBOR     NOT AVBL
MICHIGAN CITY    1700            29  270/ 22/ 24   N/A
$$

ABBREVIATIONS USED IN REMARKS
   TC - TEMPERATURE IN CELSIUS
  WCI - WIND CHILL INDEX
   HX - HEAT INDEX
  VSB - VISIBILITY
$$


USA.gov is the U.S. government's official web portal to all federal, state and local government web resources and services.